Location: Grand Moustoir
(47.8355°N, 3.3120°W)
Time: 09:43:43
(UTC+00:00)

Cosmos 1538 Rocket - Pass Details

Date: 20 January 2020
Orbit: 753 x 791 km, 74.0° (Epoch: 18 February)

Event Time Altitude Azimuth Distance (km) Brightness Sun altitude
Rises 05:25:10 0° 193° (SSW) 3,270 7.2 -24.6°
Reaches altitude 10° 05:27:34 10° 191° (S) 2,342 6.4 -24.2°
Maximum altitude 05:32:51 70° 109° (ESE) 836 4.3 -23.3°
Drops below altitude 10° 05:38:08 10° 27° (NNE) 2,337 6.7 -22.4°
Sets 05:40:31 0° 25° (NNE) 3,263 7.5 -22.0°
